www.pogodaiklimat.ru

Погода и климат >> Архив погоды >> Гренландия >> Ikermiuarsuk


ПОГОДА в Ikermiuarsuk

  • Прогноз погоды в Ikermiuarsuk
  • Монитор погоды в Ikermiuarsuk

АРХИВ ПОГОДЫ в Ikermiuarsuk

Время (UTC), дата Ветер
(напр.,м/с)
 
Видим.   Явления Облачность Т
(С)
Тd
(С)
f
(%)
Тe
(С)
Тes
(С)
Комфортность P
(гПа)
Po
(гПа)
Тmin
(С)
Tmax
(С)
R
(мм)
R24
(мм)
S
(см)
22 13.04 С 12 н/о н/о +2.0 -0.3 85 -6 -6 987.3 982.5
23 13.04 С 11 н/о н/о +1.1 -0.2 91 -7 -7 984.2 979.4
00 14.04 С 13 н/о н/о +1.6 +0.3 91 -7 -7 981.9 977.1
01 14.04 С 16 н/о н/о +1.1 +0.4 95 -8 -8 980.3 975.5
02 14.04 С 11 н/о н/о +0.2 +0.1 99 -8 -8 979.9 975.1
03 14.04 С 14 н/о н/о +0.9 +0.8 99 -8 -8 979.2 974.4
04 14.04 С 18 н/о н/о +2.0 +0.7 91 -8 -8 977.8 973.0
05 14.04 С 20 н/о н/о +2.1 +1.1 93 -8 -8 976.5 971.7
06 14.04 С 19 н/о н/о +1.9 +1.0 94 -8 -8 976.0 971.2
07 14.04 С 15 н/о н/о +2.1 +1.4 95 -7 -7 976.3 971.5
08 14.04 С 16 н/о н/о +2.2 +1.3 94 -7 -7 975.8 971.0
09 14.04 С 14 н/о н/о +1.7 +1.0 95 -7 -7 976.2 971.4
10 14.04 н/о н/о +2.3 +1.1 92 974.1 969.3
11 14.04 С 16 н/о н/о +2.0 +0.7 91 -7 -7 973.6 968.8
12 14.04 С 16 н/о н/о +2.2 +1.0 92 -7 -7 973.2 968.4
13 14.04 С 16 н/о н/о +2.1 +0.9 92 -7 -7 972.5 967.7
14 14.04 н/о н/о +2.1 +1.1 93 972.6 967.8
15 14.04 С 16 н/о н/о +1.7 +0.8 94 -8 -8 972.4 967.6
16 14.04 С 17 н/о н/о +1.5 +0.8 95 -8 -8 971.9 967.1
17 14.04 С 17 н/о н/о +1.4 +0.8 96 -8 -8 972.2 967.4
18 14.04 С 19 н/о н/о +1.3 +0.6 95 -9 -9 972.4 967.6
19 14.04 С 20 н/о н/о +0.6 +0.2 97 -10 -10 972.7 967.9
20 14.04 С 20 н/о н/о +0.5 +0.2 98 -10 -10 972.9 968.1
21 14.04 С 16 н/о н/о +0.9 +0.5 97 -9 -9 974.2 969.4
22 14.04 С 15 н/о н/о +1.0 +0.7 98 -8 -8 975.8 971.0
23 14.04 С 14 н/о н/о +1.0 +0.7 98 -8 -8 977.8 973.0
00 15.04 С 11 н/о н/о +1.4 +1.0 97 -7 -7 979.6 974.8
01 15.04 С 14 н/о н/о +1.4 +0.8 96 -8 -8 981.2 976.4
02 15.04 С 13 н/о н/о +1.5 +0.8 95 -7 -7 982.6 977.8
03 15.04 С 13 н/о н/о +1.2 +0.6 96 -8 -8 983.7 978.9
04 15.04 С 13 н/о н/о +1.0 +0.4 96 -8 -8 984.5 979.7
05 15.04 С 13 н/о н/о +0.8 +0.5 98 -8 -8 985.2 980.4
06 15.04 С 13 н/о н/о +0.7 +0.4 98 -8 -8 986.6 981.8
07 15.04 С 11 н/о н/о +0.3 +0.2 99 -8 -8 988.4 983.5
08 15.04 н/о н/о +0.1 0.0 99 989.9 985.0
09 15.04 С 8 н/о н/о -0.1 -0.1 100 -8 -8 991.2 986.3
10 15.04 0 н/о н/о 0.0 -0.1 99 992.6 987.7
11 15.04 С 10 н/о н/о +0.1 0.0 99 -8 -8 993.7 988.8
12 15.04 С 7 н/о н/о +0.2 -0.1 98 -7 -7 994.7 989.8
13 15.04 С 8 н/о н/о +0.4 -0.2 96 -7 -7 995.5 990.6
14 15.04 С 9 н/о н/о +0.5 -0.1 96 -7 -7 996.4 991.5
15 15.04 С 7 н/о н/о +0.4 -0.2 96 -7 -7 997.3 992.4
16 15.04 С 7 н/о н/о +0.4 -0.3 95 -7 -7 998.0 993.1
17 15.04 н/о н/о +0.4 -0.2 96 998.7 993.8
18 15.04 С 5 н/о н/о +0.3 -0.1 97 -6 -6 999.7 994.8
19 15.04 С 6 н/о н/о +0.3 0.0 98 -6 -6 1000.8 995.9
20 15.04 н/о н/о +0.2 +0.1 99 1001.9 997.0
21 15.04 н/о н/о 0.0 -0.1 99 1003.0 998.1
22 15.04 С 6 н/о н/о 0.0 0.0 100 -7 -7 1003.9 999.0
23 15.04 С 5 н/о н/о 0.0 0.0 100 -6 -6 1004.7 999.8
00 16.04 С 7 н/о н/о -0.1 -0.1 100 -8 -8 1005.5 1000.6
01 16.04 С 7 н/о н/о 0.0 0.0 100 -7 -7 1006.3 1001.4
02 16.04 СЗ 6 н/о н/о -0.1 -0.1 100 -7 -7 1006.6 1001.7
03 16.04 СЗ 3 н/о н/о -0.1 -0.1 100 -5 -5 1006.9 1002.0
04 16.04 СЗ 7 н/о н/о 0.0 0.0 100 -7 -7 1007.1 1002.2
05 16.04 СЗ 5 н/о н/о 0.0 0.0 100 -6 -6 1007.3 1002.4
06 16.04 СЗ 4 н/о н/о 0.0 0.0 100 -6 -6 1007.7 1002.8
07 16.04 С 9 н/о н/о 0.0 0.0 100 -8 -8 1008.0 1003.1
08 16.04 С 7 н/о н/о 0.0 0.0 100 -7 -7 1008.4 1003.5
09 16.04 С 8 н/о н/о 0.0 0.0 100 -8 -8 1008.5 1003.6
10 16.04 С 7 н/о н/о +0.3 +0.2 99 -7 -7 1008.5 1003.6
11 16.04 С 7 н/о н/о +0.4 0.0 97 -7 -7 1008.5 1003.6
12 16.04 С 7 н/о н/о +1.0 +0.1 94 -6 -6 1008.3 1003.4
13 16.04 С 7 н/о н/о +1.0 +0.1 94 -6 -6 1008.0 1003.1
14 16.04 С 5 н/о н/о +1.9 0.0 87 -4 -4 1007.2 1002.3
15 16.04 С 5 н/о н/о +2.9 -0.6 78 -2 -2 1006.3 1001.4
16 16.04 С 4 н/о н/о +2.9 -1.3 74 -1 -1 1005.6 1000.7
17 16.04 Ю 2 н/о н/о +2.1 -1.3 78 -1 -1 1004.7 999.8
18 16.04 ЮЗ 2 н/о н/о +2.8 -1.6 73 -0 -0 1004.2 999.3
19 16.04 ЮЗ 2 н/о н/о +3.0 -1.2 74 0 0 1003.6 998.7
20 16.04 ЮВ 4 н/о н/о +0.1 -1.0 92 -5 -5 1003.2 998.3
21 16.04 В 4 н/о н/о -0.5 -1.2 95 -6 -6 1002.9 998.0
22 16.04 С 2 н/о н/о +0.1 -0.7 94 -4 -4 1002.8 997.9
23 16.04 СЗ 2 н/о н/о +0.2 -0.8 93 -4 -4 1002.6 997.7
00 17.04 З 3 н/о н/о -0.6 -2.0 90 -6 -6 1002.3 997.4
01 17.04 З 3 н/о н/о -0.2 -1.8 89 -5 -5 1002.0 997.1
02 17.04 СЗ 2 н/о н/о +0.5 -1.7 85 -3 -3 1001.3 996.4
03 17.04 З 2 н/о н/о -0.2 -2.4 85 -4 -4 1000.7 995.8
04 17.04 ЮЗ 4 н/о н/о -1.2 -4.0 81 -7 -7 999.7 994.8
05 17.04 ЮЗ 4 н/о н/о -1.6 -6.1 71 -7 -7 999.1 994.2
06 17.04 ЮЗ 3 н/о н/о -1.0 -5.2 73 -6 -6 998.7 993.8
07 17.04 ЮЗ 4 н/о н/о -2.4 -5.0 82 -8 -8 998.4 993.5
08 17.04 З 2 н/о н/о -2.2 -8.1 64 -6 -6 998.0 993.1
09 17.04 З 2 н/о н/о -1.5 -7.8 62 -4 -4 998.1 993.2
10 17.04 ЮВ 2 н/о н/о -2.2 -6.7 71 -5 -5 998.0 993.1
11 17.04 З 2 н/о н/о -0.9 -5.8 69 -4 -4 997.6 992.7
12 17.04 н/о н/о -1.1 -3.9 81 997.7 992.8
13 17.04 ЮВ 3 н/о н/о -1.1 -4.3 79 -5 -5 997.7 992.8
14 17.04 З 1 н/о н/о +2.1 -4.0 64 +2 +2 997.7 992.8
15 17.04 ЮВ 2 н/о н/о -0.2 -3.1 81 -4 -4 997.7 992.8
16 17.04 Ю 1 н/о н/о +1.3 -3.8 69 -0 -0 997.8 992.9
17 17.04 ЮЗ 3 н/о н/о +0.5 -3.4 75 -4 -4 997.5 992.6
18 17.04 З 2 н/о н/о +0.8 -3.9 71 -2 -2 997.5 992.6
19 17.04 СВ 2 н/о н/о +0.5 -2.9 78 -3 -3 997.9 993.0
20 17.04 С 2 н/о н/о 0.0 -2.4 84 -3 -3 997.9 993.0
21 17.04 С 5 н/о н/о -0.5 -2.7 85 -7 -7 998.5 993.6
22 17.04 С 6 н/о н/о -0.6 -3.0 84 -7 -7 999.0 994.1
23 17.04 С 5 н/о н/о -0.1 -4.9 70 -6 -6 999.3 994.4
00 18.04 С 6 н/о н/о +0.4 -5.4 65 -6 -6 999.3 994.4
01 18.04 С 6 н/о н/о -0.1 -5.3 68 -6 -6 998.9 994.0
02 18.04 С 6 н/о н/о -0.9 -3.6 82 -8 -8 998.3 993.4
03 18.04 н/о н/о -0.3 -3.5 79 998.1 993.2
04 18.04 С 8 н/о н/о -1.6 -2.0 97 -10 -10 997.9 993.0
05 18.04 С 9 н/о н/о -0.9 -1.4 96 -9 -9 997.3 992.4
06 18.04 С 10 н/о н/о -0.6 -1.3 95 -9 -9 996.7 991.8
07 18.04 С 10 н/о н/о -0.8 -1.2 97 -10 -10 996.3 991.4
08 18.04 С 9 н/о н/о -0.7 -1.1 97 -9 -9 996.2 991.3
09 18.04 С 9 н/о н/о -0.9 -1.3 97 -9 -9 995.7 990.8
10 18.04 С 8 н/о н/о -0.9 -1.4 96 -9 -9 995.0 990.1
11 18.04 С 9 н/о н/о +0.4 -1.0 90 -8 -8 994.5 989.6
12 18.04 С 11 н/о н/о +0.6 -0.7 91 -8 -8 993.8 988.9
13 18.04 С 10 н/о н/о +0.6 -0.5 92 -7 -7 993.5 988.6
14 18.04 С 10 н/о н/о +0.7 -0.5 92 -7 -7 992.9 988.0
15 18.04 С 10 н/о н/о +1.2 -0.6 88 -7 -7 992.1 987.2
16 18.04 С 9 н/о н/о +1.0 -0.2 92 -7 -7 991.5 986.6
17 18.04 С 10 н/о н/о +0.7 0.0 95 -7 -7 991.0 986.1
18 18.04 С 10 н/о н/о +1.3 0.0 91 -7 -7 990.7 985.8
19 18.04 С 10 н/о н/о +1.3 -0.2 90 -7 -7 990.3 985.4
20 18.04 С 9 н/о н/о +1.6 -0.2 88 -6 -6 990.3 985.4
21 18.04 С 9 н/о н/о +1.8 -0.1 87 -5 -5 990.3 985.4
22 18.04 С 10 н/о н/о +2.4 -0.4 82 -5 -5 990.0 985.1
23 18.04 С 10 н/о н/о +2.7 -0.4 80 -5 -5 990.2 985.3
00 19.04 С 10 н/о н/о +3.2 -0.6 76 -4 -4 989.9 985.0
01 19.04 С 9 н/о н/о +2.9 -0.6 78 -4 -4 989.7 984.8
02 19.04 С 8 н/о н/о +1.9 -0.4 85 -5 -5 989.5 984.6
03 19.04 С 8 н/о н/о +0.2 -0.2 97 -7 -7 989.5 984.6
04 19.04 С 5 н/о н/о 0.0 -0.1 99 -6 -6 989.4 984.5
05 19.04 С 12 н/о н/о +0.1 +0.1 100 -9 -9 989.5 984.6
06 19.04 С 10 н/о н/о +0.2 +0.1 99 -8 -8 989.9 985.0
07 19.04 0 н/о н/о +0.1 0.0 99 990.8 985.9
08 19.04 С 9 н/о н/о +0.2 +0.1 99 -8 -8 991.4 986.5
09 19.04 С 7 н/о н/о 0.0 0.0 100 -7 -7 992.1 987.2
10 19.04 С 6 н/о н/о 0.0 -0.1 99 -7 -7 992.5 987.6
11 19.04 С 7 н/о н/о +0.2 -0.1 98 -7 -7 992.9 988.0
12 19.04 С 7 н/о н/о +0.4 0.0 97 -7 -7 993.3 988.4
13 19.04 С 6 н/о н/о +0.6 0.0 96 -6 -6 993.7 988.8
14 19.04 С 6 н/о н/о +0.9 0.0 94 -5 -5 993.9 989.0
15 19.04 н/о н/о +1.4 +0.2 92 994.0 989.1
16 19.04 С 3 н/о н/о +3.1 +0.6 84 -1 -1 994.2 989.3
17 19.04 З 1 н/о н/о +4.9 +1.2 77 +5 +5 994.6 989.7
18 19.04 ЮЗ 3 н/о н/о +2.1 0.0 86 -2 -2 994.9 990.0
19 19.04 Ю 4 н/о н/о +0.9 -0.3 92 -4 -4 995.2 990.3
20 19.04 Ю 4 н/о н/о +0.8 -0.4 92 -5 -5 995.2 990.3
21 19.04 Ю 4 н/о н/о +0.5 -0.5 93 -5 -5 995.3 990.4
22 19.04 ЮЗ 4 н/о н/о +1.1 -0.5 89 -4 -4 995.5 990.6
23 19.04 Ю 3 н/о н/о +1.6 -0.3 87 -2 -2 995.7 990.8
00 20.04 Ю 2 н/о н/о +0.7 -0.9 89 -3 -3 995.8 990.9
01 20.04 Ю 4 н/о н/о -0.6 -1.9 91 -6 -6 995.7 990.8
02 20.04 ЮЗ 2 н/о н/о +1.9 -1.5 78 -1 -1 995.3 990.4
03 20.04 Ю 2 н/о н/о +1.6 -2.9 72 -2 -2 995.1 990.2
04 20.04 З 3 н/о н/о +2.0 -7.1 51 -2 -2 995.2 990.3
05 20.04 З 2 н/о н/о +2.8 -8.8 42 +1 +1 995.3 990.4
06 20.04 З 3 н/о н/о +2.8 -11.9 33 -0 -0 995.3 990.4
07 20.04 СВ 3 н/о н/о +1.7 -9.5 43 -1 -1 995.5 990.6
08 20.04 СЗ 2 н/о н/о +2.2 -11.7 35 -0 -0 996.4 991.5
09 20.04 ЮЗ 3 н/о н/о +3.8 -11.8 31 +1 +1 996.8 991.9
10 20.04 СЗ 3 н/о н/о +4.5 -10.0 34 +2 +2 996.6 991.7
11 20.04 С 2 н/о н/о +5.9 -10.8 29 +5 +5 996.7 991.8
12 20.04 ЮВ 2 н/о н/о +3.6 -6.4 48 +1 +1 996.9 992.0
13 20.04 ЮВ 2 н/о н/о +2.5 -4.3 61 0 0 997.0 992.1
15 20.04 С 1 н/о н/о +3.0 -1.9 70 +2 +2 996.6 991.7
16 20.04 СВ 1 н/о н/о +1.8 -1.8 77 0 0 996.6 991.7
17 20.04 ЮВ 2 н/о н/о +1.9 -2.4 73 -1 -1 996.5 991.6
18 20.04 Ю 3 н/о н/о +0.6 -1.6 85 -4 -4 996.3 991.4
19 20.04 З 1 н/о н/о +1.6 -1.6 79 -0 -0 996.5 991.6
20 20.04 Ю 2 н/о н/о 0.0 -1.6 89 -4 -4 996.5 991.6
21 20.04 Ю 4 н/о н/о -0.4 -1.7 91 -6 -6 996.8 991.9

 

Местоположение метеостанции Ikermiuarsuk (Гренландия): широта 61.93 долгота -42.06 высота над уровнем моря 39 м.

В архиве по умолчанию представлена погода в Ikermiuarsuk за последнюю неделю. Архивные данные за месяц целиком и за предыдущие месяцы, начиная с января 2011 года, Вы можете получить, выбрав интересующий диапазон дат из раскрывающегося списка и нажав кнопку "Ввод!".


*Определитесь, кто Вы:
робот инопланетянин человек

Внимание! Время в таблицах - всемирное. Для получения местного времени необходимо прибавить поправку, которая равна -3 ч.

Смотрите также архив погоды в соседних городах и на ближайших метеорологических станциях:

Погода в Narsarsuaq (Гренландия) (200 км)
Погода в Prins Christian Sun (Гренландия) (217 км)
Погода в Qaqortoq (Гренландия) (252 км)
Погода в Angisoq (Гренландия) (275 км)
Погода в Ikermiit (Гренландия) (329 км)
Погода в Nunarsuit (Гренландия) (362 км)
Погода в Paamiut (Гренландия) (397 км)
Погода в Ukiivik (Гренландия) (438 км)
Погода в Tasiilaq (Гренландия) (462 км)
Погода в Kulusuk (Гренландия) (472 км)

Пояснения к столбцам:

Ветер - указаны скорость ветра в м/с - средняя за 10 мин, порывы в срок и между сроками (в фигурных скобках) и направление, откуда дует ветер: С - северный, СВ - северо-восточный, В - восточный, ЮВ - юго-восточный, Ю - южный, ЮЗ - юго-западный, З - западный, СЗ - северо-западный.
Видимость - горизонтальная дальность видимости в метрах или километрах. При видимости от 1 до 10 км при отсутствии осадков обычно наблюдается дымка, при ухудшении видимости до 1 км и менее - туман. В сухую погоду видимость может ухудшаться дымом, пылью или мглою.
Явления - указаны атмосферные явления, наблюдавшиеся в срок или в последний час перед сроком; фигурными скобками обозначены явления, наблюдавшиеся между сроками (за 1-3 часа до срока); квадратными скобками обозначены град или гололедные отложения с указанием их диаметра в мм.
Облачность - указаны через наклонную черту общая и нижняя облачность в баллах и высота нижней границы облаков в метрах; квадратными скобками обозначены формы облаков: Ci - перистые, Cs - перисто-слоистые, Cc - перисто-кучевые, Ac - высококучевые, As - высокослоистые, Sc - слоисто-кучевые, Ns - слоисто-дождевые, Cu - кучевые, Cb - кучево-дождевые. Подробнее классификацию облаков см. в Атласе облаков (PDF).
T - Температура воздуха - температура, измеренная на высоте 2 м над землей.
Td - Температура точки росы - температура, при понижении до которой содержащийся в воздухе водяной пар достигнет насыщения.
f - Относительная влажность воздуха - влажноcть воздуха, измеренная на высоте 2 м над землей.
Te - Эффективная температура - температура, которую ощущает одетый по сезону человек в тени. Характеристика душности погоды. При расчете учитывается влияние влажности воздуха и скорости ветра на теплоощущения человека.
Tes - Эффективная температура на солнце - температура, которую ощущает человек, с поправкой на солнечный нагрев. Характеристика знойности погоды. Зависит от высоты солнца над горизонтом, облачности и скорости ветра. Ночью, в пасмурную погоду, а также при ветре 12 м/с и более поправка равна нулю.
P - Атмосферное давление - приведенное к уровню моря атмосферное давление.
Po - Атмосферное давление - измеренное на уровне метеостанции атмосферное давление.
Tmin - Минимальная температура - минимум температуры воздуха на высоте 2 м над землей.
Tmax - Максимальная температура - максимум температуры воздуха на высоте 2 м над землей.
R - Количество осадков - Количество выпавших осадков за период времени, мм. При наведении курсора мыши на число - период времени, за который выпало указанное количество осадков.
R24 - Количество осадков - Количество выпавших осадков за 24 часа, мм.
S - Снежный покров - Высота снежного покрова, см. При наведении курсора мыши на число - состояние снежного покрова и степень покрытия местности в баллах.